SCP
0 0 0 0 0 0 0 0 0 0 0 0 0 0 0 0 0 0 0 0 0 0 0 0 0 0 0 0 0 0 0 0 0 0 0 0 0 0 0 0 0 0 0 0 0
0 0 0 0 0 0 0 0 0 0 0 0 0 0 0 0 0 0 0 0 0 0 0 0 0 0 0 0 0 0 0 0 0 0 0 0 0 0 0 0 0 0 0 0 0
0 0 0 0 0 0 0 0 0 0 0 0 0 0 0 0 0 0 0 0 0 0 0 0 0 0 0 0 0 0 0 0 0 0 0 0 0 0 0 0 0 0 0 0 0
0 0 0 0 0 0 0 0 0 0 0 0 0 0 0 0 0 0 0 0 0 0 0 0 0 0 0 0 0 0 0 0 0 0 0 0 0 0 0 0 0 0 0 0 0
0 0 0 0 0 0 0 0 0 0 0 0 0 0 0 0 0 0 0 0 0 0 0 0 0 0 0 0 0 0 0 0 0 0 0 0 0 -0 0 0 0 0 0 0 0
0 0 0 0 0 0 0 0 0 0 0 0 0 0 0 0 0 0 0 0 0 0 0 0 0 0 0 0 0 0 0 0 0 0 0 0 0 0 -0 0 0 0 0 0 0
0 0 0 0 0 0 0 0 0 -0 0 0 0 0 0 0 0 0 0 0 0 0 0 0 0 0 0 0 0 0 0 0 0 0 0 0 0 0 0 0 0 0 0 0 0
0 0 0 0 0 0 0 0 0 0 0 0 0 0 0 0 0 0 0 0 0 0 0 0 0 0 0 0 0 0 0 0 0 0 0 0 0 0 0 0 0 0 0 0 0
0 0 0 0 0 0 0 0 0 0 0 0 0 0 0 0 0 0 0 0 0 0 0 0 0 0 0 0 0 0 0 0 0 0 0 0 0 0 0 0 0 0 0 0 0
0 0 0 0 0 0 0 0 0 0 0 0 0 0 0 0 0 0 0 0 0 0 0 0 0 0 0 0 0 0 0 0 0 0 0 0 0 0 0 0 0 0 0 0 0
0 0 0 0 0 0 0 0 0 0 0 0 0 0 0 0 0 0 0 0 0 0 0 0 0 0 -0 0 0 0 0 -0 0 0 0 0 0 0 0 0 0 0 0 0 0
0 0 0 0 0 0 0 0 0 0 0 0 0 0 0 0 0 0 0 0 0 0 0 0 0 0 -0 0 0 0 0 0 -0 0 0 0 0 0 0 0 0 0 0 0 0
0 0 0 0 0 0 0 0 0 0 0 0 0 0 0 0 0 0 0 0 0 0 0 0 0 0 -0 -0 -0 0 0 0 0 0 0 0 0 0 0 0 0 0 0 0 0
0 0 0 0 0 0 0 0 0 0 0 0 0 0 0 0 0 0 0 0 0 0 0 0 0 0 0 -0 0 -0 -0 -0 0 0 -0 0 0 0 0 0 0 0 0 0 0
0 0 0 0 0 0 0 0 0 0 0 0 0 0 0 0 0 0 0 0 0 0 0 0 0 0 0 -0 0 0 0 -0 0 0 0 0 0 0 0 0 0 0 0 0 0
0 0 0 0 0 0 0 0 0 0 0 0 0 0 0 0 0 0 0 0 0 0 0 0 0 0 0 -0 -0 0 -0 -0 0 0 0 0 0 0 0 0 0 0 0 0 0
0 0 0 0 0 0 0 0 0 0 0 0 0 0 0 0 0 0 0 0 0 0 0 0 0 0 0 0 -0 0 -0 -0 0 0 0 0 0 0 0 0 0 0 0 0 0
0 0 0 0 0 0 0 0 0 0 0 0 0 0 0 0 0 0 0 0 0 0 0 0 0 0 0 0 0 0 -0 0 0 0 0 0 0 0 0 0 0 0 0 0 0
0 0 0 0 0 0 0 0 0 0 0 0 0 0 0 0 0 0 0 0 0 0 0 0 0 0 0 0 0 0 0 -0 -0 0 0 0 0 0 0 0 0 0 0 0 0
0 0 0 0 0 0 0 0 0 0 0 0 0 0 0 0 0 0 0 0 0 0 0 0 0 0 0 0 0 0 0 0 0 0 0 0 0 0 0 0 0 0 0 0 0
0 0 0 0 0 0 0 0 0 0 0 0 0 0 0 0 0 0 0 0 0 0 0 0 0 0 0 0 0 0 0 0 0 0 0 0 0 0 0 0 0 0 0 0 0
0 0 0 0 0 0 0 0 0 0 0 0 0 0 0 0 0 0 0 0 0 0 0 0 0 0 0 0 0 0 0 0 0 0 0 0 0 0 0 0 0 0 0 0 0
0 0 0 0 0 0 0 0 0 0 0 0 0 0 0 0 0 0 0 0 0 0 0 0 0 0 0 0 0 0 0 0 0 0 0 0 0 0 0 0 0 0 0 0 0
0 0 0 0 0 0 0 0 0 0 0 0 0 0 0 0 0 0 0 0 0 0 0 0 0 0 0 0 0 0 0 0 0 0 0 0 0 0 0 0 0 0 0 0 0
0 0 0 0 0 0 0 0 0 0 0 0 0 0 0 0 0 0 0 0 0 0 0 0 0 0 0 0 0 0 0 0 0 0 0 0 0 0 0 0 0 0 0 0 0
0 0 0 0 0 0 0 0 0 0 0 0 0 0 0 0 0 0 0 0 0 0 0 0 0 0 0 0 0 0 0 0 0 0 0 0 0 0 0 0 0 0 0 0 0
0 0 0 0 0 0 0 0 0 0 0 0 0 0 0 0 0 0 0 0 0 0 0 0 0 0 0 0 0 0 0 0 0 0 0 0 0 0 0 0 0 0 0 0 0
Wind_Speed_500mb
14 15 17 17 18 19 21 24 27 28 30 32 31 29 27 26 19 12 17 21 27 29 32 31 21 17 14 5 9 3 8 35 46 15 13 7 10 17 15 19 26 30 14 14 51
16 17 17 19 20 21 23 25 27 29 31 30 30 27 23 24 21 4 12 21 23 27 28 31 28 23 6 3 6 12 12 38 2 8 13 42 22 8 11 13 14 24 26 19 54
17 19 20 21 23 23 24 25 27 30 29 30 29 25 21 19 11 3 17 27 24 23 25 24 21 18 6 3 9 9 30 25 29 25 29 20 28 20 6 6 21 38 50 39 62
21 22 22 22 23 24 25 27 29 31 30 30 24 21 16 11 2 9 27 29 18 18 21 19 17 10 3 6 7 11 30 24 18 41 21 18 33 12 26 31 30 40 45 57 68
25 24 24 23 23 24 25 27 28 29 28 22 21 18 12 6 6 24 24 16 11 20 24 20 19 5 7 6 5 14 23 25 38 38 33 35 30 23 26 37 44 37 41 63 71
25 25 24 23 23 24 26 28 30 27 23 18 17 18 10 4 19 25 18 10 16 19 21 31 14 16 20 20 15 13 27 21 32 33 23 16 31 22 8 26 35 33 49 67 74
24 22 23 22 23 25 27 28 29 24 15 14 12 18 11 2 21 23 17 15 17 19 23 26 23 15 9 12 17 24 27 21 26 33 22 12 22 3 41 21 27 43 55 65 73
20 21 22 23 24 27 27 27 24 11 12 11 14 20 6 11 22 22 16 16 21 26 29 24 34 24 12 13 13 18 14 14 16 27 20 36 21 3 27 33 18 28 47 60 66
20 21 23 24 26 26 25 26 15 6 12 9 11 15 7 15 27 14 18 21 29 24 24 19 14 9 6 7 7 11 13 27 14 28 12 28 24 7 29 55 20 33 31 52 57
21 22 21 24 26 27 23 17 7 7 7 8 12 13 6 18 24 19 16 23 22 25 9 1 5 5 6 6 10 10 14 14 22 17 18 28 27 8 53 56 32 20 21 28 39
22 20 20 22 22 24 19 7 5 8 4 1 5 6 15 21 9 24 23 19 13 8 7 4 4 18 31 18 26 18 18 16 20 11 21 30 22 12 43 49 48 46 16 8 9
19 17 18 19 18 18 19 6 6 7 12 5 4 10 12 19 10 24 28 9 8 6 13 8 4 10 25 20 9 11 12 17 18 16 5 19 22 18 23 14 32 34 35 18 7
18 15 16 16 15 11 14 13 11 7 5 6 4 8 8 13 9 17 27 10 8 10 8 2 10 17 15 17 21 7 12 12 8 21 14 7 7 12 11 21 37 55 51 41 33
17 14 13 11 8 7 7 10 10 9 8 5 2 1 6 12 5 14 17 8 7 5 10 7 11 9 9 14 22 12 29 17 11 5 7 7 5 8 12 21 24 46 56 52 42
18 14 11 6 4 3 4 6 5 6 7 6 7 8 9 4 11 10 11 5 3 6 5 9 13 11 12 11 22 9 26 5 11 11 7 15 5 5 7 14 17 38 42 45 14
19 15 11 7 6 4 2 2 3 11 10 0 4 7 5 9 8 13 9 8 2 5 2 7 9 4 6 1 6 11 9 3 4 4 8 13 5 5 6 9 3 26 54 47 39
21 16 13 8 5 5 1 3 10 8 8 8 4 6 2 7 7 13 8 12 8 10 13 13 9 11 5 5 8 12 8 7 10 10 6 15 8 8 10 11 7 7 15 38 41
21 19 16 13 12 7 6 9 6 4 8 3 2 3 5 9 7 12 6 5 10 8 5 8 12 12 14 4 6 8 7 5 3 5 4 13 11 5 3 4 12 14 10 19 41
23 18 18 16 14 12 6 7 13 11 5 5 5 6 9 6 3 9 8 4 3 9 5 9 7 9 3 6 4 10 9 3 8 2 5 6 3 2 7 2 9 10 11 9 19
22 14 15 18 19 17 7 9 5 5 3 1 7 5 6 4 1 4 2 6 7 1 2 3 8 5 8 7 7 8 3 5 6 5 5 6 7 6 11 10 11 19 29 33 32
24 11 15 25 23 10 7 12 8 9 6 3 8 6 4 2 6 2 4 4 6 6 5 4 2 12 4 9 3 11 7 9 8 5 5 6 4 6 8 10 12 19 31 35 39
26 2 24 34 8 3 4 9 3 7 7 3 3 3 9 9 6 3 5 4 4 6 1 4 4 5 3 6 3 2 4 2 6 3 3 5 3 5 7 13 16 19 26 33 38
23 11 25 40 6 4 4 5 4 6 7 8 8 5 2 7 2 2 3 3 5 5 2 3 4 6 13 11 9 9 6 3 4 4 2 7 7 2 12 14 13 17 24 32 36
20 7 9 25 9 11 10 7 5 9 3 6 6 5 4 4 4 6 4 0 1 2 1 1 3 8 8 6 3 8 7 6 3 5 5 4 9 5 7 11 12 17 21 27 33
27 12 18 12 18 10 11 11 10 8 5 9 2 8 10 7 6 7 5 3 2 2 6 4 3 3 1 2 1 3 7 7 2 4 7 4 9 12 5 7 9 14 18 24 30
29 15 16 15 16 28 18 14 18 8 14 9 8 14 9 8 9 12 9 6 6 1 3 4 5 2 6 5 8 6 9 7 4 2 2 3 3 4 9 17 15 13 15 23 26
54 41 18 21 11 12 12 15 20 22 17 10 18 9 12 10 10 12 13 13 9 8 4 4 7 5 8 8 6 9 11 11 3 3 8 7 6 4 6 11 13 17 16 17 18
Wind_Direction_500mb
330 329 333 333 329 330 330 332 334 337 338 337 337 339 338 337 347 356 39 23 3 352 351 353 342 320 324 297 246 217 251 243 237 213 230 108 202 229 220 201 187 195 223 230 188
330 330 332 327 328 326 327 329 332 334 336 336 335 336 332 333 343 3 18 351 340 338 337 349 2 358 7 299 214 213 237 246 7 259 275 262 263 249 188 171 209 213 213 219 186
325 323 325 326 325 323 324 327 329 332 334 331 332 337 331 334 348 85 351 334 329 339 351 353 355 9 9 277 218 237 247 285 302 309 332 283 274 261 213 228 209 216 211 196 185
315 316 321 323 323 323 325 327 330 332 333 332 334 339 338 335 61 354 323 321 322 333 342 343 349 341 244 236 245 275 263 264 280 283 325 320 317 243 229 246 272 249 230 194 190
309 307 314 321 322 322 323 324 326 327 328 327 331 339 358 346 21 329 327 337 336 333 340 338 326 300 242 246 292 239 273 280 273 272 295 314 300 269 272 278 262 259 235 209 199
309 311 314 320 321 322 322 322 324 324 321 321 329 339 355 46 353 342 342 343 336 336 334 339 308 293 289 266 249 289 296 291 269 268 254 323 300 302 308 316 251 231 224 210 202
313 316 318 321 321 320 320 320 322 320 313 323 326 335 318 40 353 347 347 343 334 332 315 331 316 277 315 283 268 287 269 275 254 239 237 271 284 171 3 325 251 213 210 203 202
306 313 317 321 323 322 322 320 320 315 313 319 315 330 312 336 347 336 336 341 335 329 322 320 317 257 217 256 287 296 256 263 226 214 219 158 266 239 5 358 281 232 214 202 204
298 310 317 319 323 324 324 322 315 298 304 292 317 332 315 342 345 343 334 335 332 335 329 320 316 296 261 220 269 216 273 245 288 197 164 170 243 313 21 5 302 260 227 209 205
295 303 314 317 324 326 330 322 287 332 324 284 298 313 341 328 344 356 337 331 328 328 10 9 349 338 280 208 228 238 253 244 228 196 194 171 215 320 38 15 4 309 280 233 213
286 298 312 317 326 330 338 333 307 272 327 324 315 299 327 340 350 1 350 341 347 334 28 285 7 343 324 267 254 278 283 275 296 241 172 193 190 43 46 11 13 29 317 349 315
278 289 304 317 328 339 354 31 45 295 306 240 291 294 334 347 323 5 354 21 27 331 357 7 317 328 337 332 5 343 287 279 235 167 129 139 149 73 66 354 357 38 23 18 60
264 278 298 314 326 338 17 36 17 3 290 296 302 317 326 334 328 336 353 359 48 355 10 333 277 316 334 343 350 319 353 318 89 103 50 90 41 49 33 51 346 16 23 34 41
256 270 289 307 311 334 18 19 10 7 53 297 305 325 320 326 295 342 352 6 29 332 338 256 304 309 16 4 344 348 353 348 14 62 119 317 117 47 10 54 349 1 4 27 26
252 263 281 290 285 312 357 2 16 348 8 295 315 317 326 26 318 359 351 356 62 298 60 284 328 340 50 359 351 329 326 2 46 62 97 358 84 360 58 76 28 347 344 25 13
238 249 269 262 248 243 336 53 28 42 258 37 309 342 12 17 347 322 351 3 26 346 355 262 295 342 308 223 313 297 352 300 80 102 52 354 5 14 42 68 73 3 354 4 30
237 242 246 229 238 215 211 108 40 140 347 304 334 30 317 351 3 10 13 16 30 34 11 339 328 325 5 324 310 9 2 344 13 28 42 342 35 14 358 357 12 9 16 7 25
226 238 241 219 213 199 164 53 108 230 233 356 16 1 41 357 7 350 12 32 23 41 32 18 342 358 337 23 319 358 38 79 52 14 356 9 10 43 72 105 38 7 43 13 35
229 234 238 213 198 185 166 73 208 201 199 180 68 72 327 354 21 45 19 352 357 12 43 3 285 322 340 315 13 328 51 188 113 17 52 349 282 202 168 32 47 47 47 46 312
218 216 221 205 187 173 91 243 210 217 183 110 175 151 194 266 68 77 300 279 302 217 114 72 303 294 298 2 20 82 216 43 9 70 65 360 30 29 30 40 42 34 40 58 68
198 191 194 186 175 172 169 220 227 206 186 152 200 167 213 224 138 183 214 237 217 293 223 68 94 298 24 37 351 346 18 49 114 99 140 127 324 304 54 40 42 38 52 53 54
180 127 176 169 138 74 179 191 221 178 171 168 150 199 182 169 158 222 240 164 317 331 357 30 94 261 251 306 268 232 1 21 100 275 66 97 280 36 52 69 72 51 55 56 57
172 138 174 179 163 220 264 307 238 175 197 181 187 215 182 181 85 199 184 11 350 334 58 11 350 6 350 2 1 38 357 350 61 74 8 119 220 120 63 82 76 78 68 63 57
164 138 163 195 215 151 142 231 224 203 201 192 152 127 122 201 146 178 157 299 264 284 253 306 85 157 180 181 334 319 352 355 53 87 175 195 163 203 99 124 98 93 77 63 54
181 197 180 175 210 179 165 141 149 182 209 203 212 203 171 174 148 191 150 134 67 161 10 52 160 25 184 32 47 282 297 333 77 169 139 181 167 194 180 142 78 87 77 63 50
174 164 165 177 167 170 186 201 182 166 154 211 198 188 194 182 182 193 151 183 194 105 81 18 151 49 314 359 27 296 274 279 276 225 106 94 293 145 125 136 121 114 79 58 44
195 192 174 166 149 143 199 194 195 145 207 178 191 138 188 205 160 127 127 110 124 146 123 61 120 67 270 333 355 343 228 199 200 212 142 165 225 127 55 103 135 128 99 67 41
Wind_Speed_850mb
14 15 17 17 18 19 21 24 27 28 30 32 31 29 27 26 19 12 17 21 27 29 32 31 21 17 14 5 9 3 8 35 46 15 13 7 10 17 15 19 26 30 14 14 51
16 17 17 19 20 21 23 25 27 29 31 30 30 27 23 24 21 4 12 21 23 27 28 31 28 23 6 3 6 12 12 38 2 8 13 42 22 8 11 13 14 24 26 19 54
17 19 20 21 23 23 24 25 27 30 29 30 29 25 21 19 11 3 17 27 24 23 25 24 21 18 6 3 9 9 30 25 29 25 29 20 28 20 6 6 21 38 50 39 62
21 22 22 22 23 24 25 27 29 31 30 30 24 21 16 11 2 9 27 29 18 18 21 19 17 10 3 6 7 11 30 24 18 41 21 18 33 12 26 31 30 40 45 57 68
25 24 24 23 23 24 25 27 28 29 28 22 21 18 12 6 6 24 24 16 11 20 24 20 19 5 7 6 5 14 23 25 38 38 33 35 30 23 26 37 44 37 41 63 71
25 25 24 23 23 24 26 28 30 27 23 18 17 18 10 4 19 25 18 10 16 19 21 31 14 16 20 20 15 13 27 21 32 33 23 16 31 22 8 26 35 33 49 67 74
24 22 23 22 23 25 27 28 29 24 15 14 12 18 11 2 21 23 17 15 17 19 23 26 23 15 9 12 17 24 27 21 26 33 22 12 22 3 41 21 27 43 55 65 73
20 21 22 23 24 27 27 27 24 11 12 11 14 20 6 11 22 22 16 16 21 26 29 24 34 24 12 13 13 18 14 14 16 27 20 36 21 3 27 33 18 28 47 60 66
20 21 23 24 26 26 25 26 15 6 12 9 11 15 7 15 27 14 18 21 29 24 24 19 14 9 6 7 7 11 13 27 14 28 12 28 24 7 29 55 20 33 31 52 57
21 22 21 24 26 27 23 17 7 7 7 8 12 13 6 18 24 19 16 23 22 25 9 1 5 5 6 6 10 10 14 14 22 17 18 28 27 8 53 56 32 20 21 28 39
22 20 20 22 22 24 19 7 5 8 4 1 5 6 15 21 9 24 23 19 13 8 7 4 4 18 31 18 26 18 18 16 20 11 21 30 22 12 43 49 48 46 16 8 9
19 17 18 19 18 18 19 6 6 7 12 5 4 10 12 19 10 24 28 9 8 6 13 8 4 10 25 20 9 11 12 17 18 16 5 19 22 18 23 14 32 34 35 18 7
18 15 16 16 15 11 14 13 11 7 5 6 4 8 8 13 9 17 27 10 8 10 8 2 10 17 15 17 21 7 12 12 8 21 14 7 7 12 11 21 37 55 51 41 33
17 14 13 11 8 7 7 10 10 9 8 5 2 1 6 12 5 14 17 8 7 5 10 7 11 9 9 14 22 12 29 17 11 5 7 7 5 8 12 21 24 46 56 52 42
18 14 11 6 4 3 4 6 5 6 7 6 7 8 9 4 11 10 11 5 3 6 5 9 13 11 12 11 22 9 26 5 11 11 7 15 5 5 7 14 17 38 42 45 14
19 15 11 7 6 4 2 2 3 11 10 0 4 7 5 9 8 13 9 8 2 5 2 7 9 4 6 1 6 11 9 3 4 4 8 13 5 5 6 9 3 26 54 47 39
21 16 13 8 5 5 1 3 10 8 8 8 4 6 2 7 7 13 8 12 8 10 13 13 9 11 5 5 8 12 8 7 10 10 6 15 8 8 10 11 7 7 15 38 41
21 19 16 13 12 7 6 9 6 4 8 3 2 3 5 9 7 12 6 5 10 8 5 8 12 12 14 4 6 8 7 5 3 5 4 13 11 5 3 4 12 14 10 19 41
23 18 18 16 14 12 6 7 13 11 5 5 5 6 9 6 3 9 8 4 3 9 5 9 7 9 3 6 4 10 9 3 8 2 5 6 3 2 7 2 9 10 11 9 19
22 14 15 18 19 17 7 9 5 5 3 1 7 5 6 4 1 4 2 6 7 1 2 3 8 5 8 7 7 8 3 5 6 5 5 6 7 6 11 10 11 19 29 33 32
24 11 15 25 23 10 7 12 8 9 6 3 8 6 4 2 6 2 4 4 6 6 5 4 2 12 4 9 3 11 7 9 8 5 5 6 4 6 8 10 12 19 31 35 39
26 2 24 34 8 3 4 9 3 7 7 3 3 3 9 9 6 3 5 4 4 6 1 4 4 5 3 6 3 2 4 2 6 3 3 5 3 5 7 13 16 19 26 33 38
23 11 25 40 6 4 4 5 4 6 7 8 8 5 2 7 2 2 3 3 5 5 2 3 4 6 13 11 9 9 6 3 4 4 2 7 7 2 12 14 13 17 24 32 36
20 7 9 25 9 11 10 7 5 9 3 6 6 5 4 4 4 6 4 0 1 2 1 1 3 8 8 6 3 8 7 6 3 5 5 4 9 5 7 11 12 17 21 27 33
27 12 18 12 18 10 11 11 10 8 5 9 2 8 10 7 6 7 5 3 2 2 6 4 3 3 1 2 1 3 7 7 2 4 7 4 9 12 5 7 9 14 18 24 30
29 15 16 15 16 28 18 14 18 8 14 9 8 14 9 8 9 12 9 6 6 1 3 4 5 2 6 5 8 6 9 7 4 2 2 3 3 4 9 17 15 13 15 23 26
54 41 18 21 11 12 12 15 20 22 17 10 18 9 12 10 10 12 13 13 9 8 4 4 7 5 8 8 6 9 11 11 3 3 8 7 6 4 6 11 13 17 16 17 18
Wind_Direction_850mb
330 329 333 333 329 330 330 332 334 337 338 337 337 339 338 337 347 356 39 23 3 352 351 353 342 320 324 297 246 217 251 243 237 213 230 108 202 229 220 201 187 195 223 230 188
330 330 332 327 328 326 327 329 332 334 336 336 335 336 332 333 343 3 18 351 340 338 337 349 2 358 7 299 214 213 237 246 7 259 275 262 263 249 188 171 209 213 213 219 186
325 323 325 326 325 323 324 327 329 332 334 331 332 337 331 334 348 85 351 334 329 339 351 353 355 9 9 277 218 237 247 285 302 309 332 283 274 261 213 228 209 216 211 196 185
315 316 321 323 323 323 325 327 330 332 333 332 334 339 338 335 61 354 323 321 322 333 342 343 349 341 244 236 245 275 263 264 280 283 325 320 317 243 229 246 272 249 230 194 190
309 307 314 321 322 322 323 324 326 327 328 327 331 339 358 346 21 329 327 337 336 333 340 338 326 300 242 246 292 239 273 280 273 272 295 314 300 269 272 278 262 259 235 209 199
309 311 314 320 321 322 322 322 324 324 321 321 329 339 355 46 353 342 342 343 336 336 334 339 308 293 289 266 249 289 296 291 269 268 254 323 300 302 308 316 251 231 224 210 202
313 316 318 321 321 320 320 320 322 320 313 323 326 335 318 40 353 347 347 343 334 332 315 331 316 277 315 283 268 287 269 275 254 239 237 271 284 171 3 325 251 213 210 203 202
306 313 317 321 323 322 322 320 320 315 313 319 315 330 312 336 347 336 336 341 335 329 322 320 317 257 217 256 287 296 256 263 226 214 219 158 266 239 5 358 281 232 214 202 204
298 310 317 319 323 324 324 322 315 298 304 292 317 332 315 342 345 343 334 335 332 335 329 320 316 296 261 220 269 216 273 245 288 197 164 170 243 313 21 5 302 260 227 209 205
295 303 314 317 324 326 330 322 287 332 324 284 298 313 341 328 344 356 337 331 328 328 10 9 349 338 280 208 228 238 253 244 228 196 194 171 215 320 38 15 4 309 280 233 213
286 298 312 317 326 330 338 333 307 272 327 324 315 299 327 340 350 1 350 341 347 334 28 285 7 343 324 267 254 278 283 275 296 241 172 193 190 43 46 11 13 29 317 349 315
278 289 304 317 328 339 354 31 45 295 306 240 291 294 334 347 323 5 354 21 27 331 357 7 317 328 337 332 5 343 287 279 235 167 129 139 149 73 66 354 357 38 23 18 60
264 278 298 314 326 338 17 36 17 3 290 296 302 317 326 334 328 336 353 359 48 355 10 333 277 316 334 343 350 319 353 318 89 103 50 90 41 49 33 51 346 16 23 34 41
256 270 289 307 311 334 18 19 10 7 53 297 305 325 320 326 295 342 352 6 29 332 338 256 304 309 16 4 344 348 353 348 14 62 119 317 117 47 10 54 349 1 4 27 26
252 263 281 290 285 312 357 2 16 348 8 295 315 317 326 26 318 359 351 356 62 298 60 284 328 340 50 359 351 329 326 2 46 62 97 358 84 360 58 76 28 347 344 25 13
238 249 269 262 248 243 336 53 28 42 258 37 309 342 12 17 347 322 351 3 26 346 355 262 295 342 308 223 313 297 352 300 80 102 52 354 5 14 42 68 73 3 354 4 30
237 242 246 229 238 215 211 108 40 140 347 304 334 30 317 351 3 10 13 16 30 34 11 339 328 325 5 324 310 9 2 344 13 28 42 342 35 14 358 357 12 9 16 7 25
226 238 241 219 213 199 164 53 108 230 233 356 16 1 41 357 7 350 12 32 23 41 32 18 342 358 337 23 319 358 38 79 52 14 356 9 10 43 72 105 38 7 43 13 35
229 234 238 213 198 185 166 73 208 201 199 180 68 72 327 354 21 45 19 352 357 12 43 3 285 322 340 315 13 328 51 188 113 17 52 349 282 202 168 32 47 47 47 46 312
218 216 221 205 187 173 91 243 210 217 183 110 175 151 194 266 68 77 300 279 302 217 114 72 303 294 298 2 20 82 216 43 9 70 65 360 30 29 30 40 42 34 40 58 68
198 191 194 186 175 172 169 220 227 206 186 152 200 167 213 224 138 183 214 237 217 293 223 68 94 298 24 37 351 346 18 49 114 99 140 127 324 304 54 40 42 38 52 53 54
180 127 176 169 138 74 179 191 221 178 171 168 150 199 182 169 158 222 240 164 317 331 357 30 94 261 251 306 268 232 1 21 100 275 66 97 280 36 52 69 72 51 55 56 57
172 138 174 179 163 220 264 307 238 175 197 181 187 215 182 181 85 199 184 11 350 334 58 11 350 6 350 2 1 38 357 350 61 74 8 119 220 120 63 82 76 78 68 63 57
164 138 163 195 215 151 142 231 224 203 201 192 152 127 122 201 146 178 157 299 264 284 253 306 85 157 180 181 334 319 352 355 53 87 175 195 163 203 99 124 98 93 77 63 54
181 197 180 175 210 179 165 141 149 182 209 203 212 203 171 174 148 191 150 134 67 161 10 52 160 25 184 32 47 282 297 333 77 169 139 181 167 194 180 142 78 87 77 63 50
174 164 165 177 167 170 186 201 182 166 154 211 198 188 194 182 182 193 151 183 194 105 81 18 151 49 314 359 27 296 274 279 276 225 106 94 293 145 125 136 121 114 79 58 44
195 192 174 166 149 143 199 194 195 145 207 178 191 138 188 205 160 127 127 110 124 146 123 61 120 67 270 333 355 343 228 199 200 212 142 165 225 127 55 103 135 128 99 67 41